Louisville, KY

7:24 AM EDT on October 22, 2017 (GMT -0400)
Louisville International-Standiford

Weather History for KSDF - January, 2013

Change the Weather History Date:

Thursday, January 31, 2013

  Actual Average Record
Temperature  
Mean Temperature 28 °F 36 °F  
Max Temperature 37 °F 44 °F 69 °F (2016)
Min Temperature 19 °F 27 °F -7 °F (1936)
Degree Days  
Heating Degree Days 37 29  
Month to date heating degree days 831 927  
Since 1 July heating degree days 2322 2509  
Cooling Degree Days 0 0  
Month to date cooling degree days 0 0  
Year to date cooling degree days 0 0  
Moisture  
Dew Point 21 °F    
Average Humidity 72    
Maximum Humidity 92    
Minimum Humidity 52    
Precipitation  
Precipitation 0.03 in 0.11 in 1.90 in (1891)
Month to date precipitation 5.10 3.24  
Year to date precipitation 5.10 3.24  
Snow  
Snow 1.70 in 0.20 in 2.80 in (1951)
Month to date snowfall 2.2 3.7  
Since 1 July snowfall 4.9 6.5  
Snow Depth 0.00 in    
Sea Level Pressure  
Sea Level Pressure 29.98 in    
Wind  
Wind Speed 18 mph (West)    
Max Wind Speed 35 mph    
Max Gust Speed 43 mph    
Visibility 6 miles    
Events Fog , Snow    
T = Trace of Precipitation, MM = Missing Value Source: NWS Daily Summary

Daily Weather History Graph

Daily Weather History Graph

Search for Another Location

Airport or City:

Trip Planner

Search our weather history database for the weather conditions in past years. The results will help you decide how hot, cold, wet, or windy it might be!

Date:

Astronomy

Jan. 31, 2013 Rise Set
Actual Time 7:48 AM EST 6:05 PM EST
Civil Twilight 7:20 AM EST 6:32 PM EST
Nautical Twilight 6:48 AM EST 7:04 PM EST
Astronomical Twilight 6:17 AM EST 7:35 PM EST
Moon 11:01 PM EST (1/31) 9:52 AM EST (1/31)
Length of Visible Light 11h 12m
Length of Day
10h 16m
Waning Gibbous, 80% of the Moon is Illuminated
Jan 31
Waning Gibbous
Feb 3
Last Quarter
Feb 10
New
Feb 17
First Quarter
Feb 25
Full

Hourly Weather History & Observations

Time (EST) Temp. Windchill Dew Point Humidity Pressure Visibility Wind Dir Wind Speed Gust Speed Precip Events Conditions
12:56 AM 33.1 °F 20.3 °F 24.1 °F 70% 29.77 in 10.0 mi West 24.2 mph 33.4 mph 0.00 in Snow Light Snow
1:10 AM 32.0 °F 17.4 °F 21.2 °F 64% 29.78 in 10.0 mi West 31.1 mph 39.1 mph 0.00 in Snow Light Snow
1:56 AM 30.9 °F 17.2 °F 19.0 °F 61% 29.82 in 9.0 mi WNW 25.3 mph 39.1 mph 0.00 in   Overcast
2:56 AM 30.9 °F 17.8 °F 18.0 °F 59% 29.85 in 10.0 mi West 23.0 mph 38.0 mph N/A   Overcast
3:56 AM 30.9 °F 18.1 °F 18.0 °F 59% 29.86 in 10.0 mi West 21.9 mph 28.8 mph N/A   Overcast
4:56 AM 30.9 °F 19.1 °F 19.0 °F 61% 29.86 in 10.0 mi West 18.4 mph 23.0 mph N/A   Overcast
5:56 AM 30.0 °F 17.5 °F 18.0 °F 61% 29.88 in 10.0 mi West 19.6 mph 26.5 mph N/A   Overcast
6:56 AM 30.0 °F 16.9 °F 18.0 °F 61% 29.92 in 10.0 mi West 21.9 mph 32.2 mph 0.00 in   Overcast
7:56 AM 28.9 °F 19.2 °F 19.0 °F 67% 29.96 in 9.0 mi West 11.5 mph 20.7 mph 0.00 in Snow Light Snow
8:56 AM 28.0 °F 16.5 °F 18.0 °F 66% 29.99 in 5.0 mi WNW 15.0 mph - 0.00 in Snow Light Snow
9:00 AM 28.4 °F 17.5 °F 17.6 °F 64% 29.98 in 2.5 mi WNW 13.8 mph - 0.00 in Snow Light Snow
9:05 AM 28.4 °F 18.5 °F 19.4 °F 69% 29.98 in 1.0 mi WNW 11.5 mph - 0.00 in Snow Light Snow
9:33 AM 26.6 °F 15.2 °F 21.2 °F 80% 30.00 in 0.8 mi West 13.8 mph - 0.00 in Snow Light Snow
9:44 AM 26.6 °F 17.5 °F 23.0 °F 86% 30.00 in 2.5 mi West 9.2 mph - 0.00 in Snow Light Snow
9:46 AM 26.6 °F 17.5 °F 23.0 °F 86% 30.00 in 4.0 mi West 9.2 mph - N/A Snow Light Snow
9:51 AM 26.6 °F 16.8 °F 23.0 °F 86% 30.00 in 6.0 mi West 10.4 mph - 0.00 in Snow Light Snow
9:56 AM 28.0 °F 20.0 °F 23.0 °F 81% 30.02 in 6.0 mi WSW 8.1 mph - 0.00 in Snow Light Snow
10:02 AM 28.4 °F 21.2 °F 23.0 °F 80% 30.00 in 9.0 mi WSW 6.9 mph - 0.00 in Snow Light Snow
10:56 AM 30.0 °F 18.7 °F 21.0 °F 69% 30.02 in 8.0 mi WSW 16.1 mph - 0.00 in Snow Light Snow
11:02 AM 28.4 °F 16.2 °F 21.2 °F 74% 30.01 in 5.0 mi WSW 17.3 mph - 0.00 in Snow Light Snow
11:18 AM 28.4 °F 18.0 °F 21.2 °F 74% 30.02 in 2.5 mi WSW 12.7 mph - 0.00 in Snow Light Snow
11:33 AM 30.2 °F 20.2 °F 23.0 °F 75% 30.02 in 4.0 mi WSW 12.7 mph - 0.00 in Snow Light Snow
11:56 AM 30.9 °F 20.2 °F 24.1 °F 76% 30.03 in 4.0 mi SW 15.0 mph 20.7 mph 0.00 in Snow Light Snow
12:04 PM 30.2 °F 19.3 °F 24.8 °F 80% 30.01 in 2.0 mi WSW 15.0 mph 25.3 mph 0.00 in Snow Light Snow
12:20 PM 30.2 °F 21.3 °F 24.8 °F 80% 30.02 in 1.5 mi WSW 10.4 mph - 0.00 in Snow Light Snow
12:30 PM 30.2 °F 20.2 °F 24.8 °F 80% 30.02 in 2.0 mi WSW 12.7 mph - 0.00 in Snow Light Snow
12:49 PM 30.2 °F 19.3 °F 24.8 °F 80% 30.00 in 5.0 mi West 15.0 mph - 0.00 in Snow Light Snow
12:56 PM 32.0 °F 23.0 °F 24.1 °F 73% 30.01 in 5.0 mi WSW 11.5 mph - 0.00 in Snow Light Snow
1:39 PM 35.6 °F 24.2 °F 19.4 °F 52% 29.98 in 9.0 mi West 21.9 mph 28.8 mph 0.00 in Snow Light Snow
1:56 PM 34.0 °F 22.4 °F 19.0 °F 54% 29.99 in 9.0 mi WSW 20.7 mph 31.1 mph 0.00 in Snow Light Snow
2:56 PM 34.0 °F 23.0 °F 19.0 °F 54% 29.98 in 10.0 mi WSW 18.4 mph 24.2 mph 0.00 in   Mostly Cloudy
3:56 PM 36.0 °F 26.0 °F 19.9 °F 52% 29.97 in 10.0 mi WSW 17.3 mph 25.3 mph N/A   Mostly Cloudy
4:56 PM 36.0 °F 25.3 °F 19.9 °F 52% 29.97 in 10.0 mi West 19.6 mph 26.5 mph N/A   Overcast
5:56 PM 35.1 °F 24.5 °F 21.0 °F 57% 29.98 in 10.0 mi West 18.4 mph 21.9 mph N/A   Overcast
6:56 PM 35.1 °F 25.2 °F 21.9 °F 59% 29.99 in 10.0 mi West 16.1 mph 23.0 mph N/A   Overcast
7:56 PM 34.0 °F 23.4 °F 24.1 °F 67% 29.98 in 5.0 mi West 17.3 mph 23.0 mph 0.00 in Snow Light Snow
8:00 PM 33.8 °F 23.5 °F 24.8 °F 70% 29.97 in 2.5 mi WSW 16.1 mph 24.2 mph 0.00 in Snow Light Snow
8:04 PM 32.0 °F 21.2 °F 26.6 °F 80% 29.97 in 1.5 mi West 16.1 mph 24.2 mph 0.00 in Snow Light Snow
8:40 PM 30.2 °F 21.3 °F 28.4 °F 93% 29.97 in 1.0 mi WSW 10.4 mph - 0.01 in Snow Light Snow
8:48 PM 30.2 °F 21.9 °F 28.4 °F 93% 29.96 in 1.0 mi WSW 9.2 mph - 0.01 in Snow Light Snow
8:56 PM 30.9 °F 22.2 °F 28.9 °F 92% 29.99 in 1.0 mi West 10.4 mph - 0.02 in Snow Light Snow
9:00 PM 30.2 °F 21.9 °F 28.4 °F 93% 29.97 in 0.8 mi WSW 9.2 mph - 0.00 in Snow Light Snow
9:13 PM 30.2 °F 19.8 °F 28.4 °F 93% 29.97 in 1.0 mi West 13.8 mph - 0.01 in Snow Light Snow
9:25 PM 30.2 °F 14.3 °F 28.4 °F 93% 30.00 in 0.5 mi NW 34.5 mph 42.6 mph 0.01 in Fog , Snow Snow
9:28 PM 26.6 °F 10.6 °F 24.8 °F 93% 30.01 in 0.2 mi NW 28.8 mph 42.6 mph 0.01 in Fog , Snow Heavy Snow
9:32 PM 24.8 °F 9.0 °F 21.2 °F 86% 30.02 in 0.2 mi NW 25.3 mph 42.6 mph 0.01 in Fog , Snow Heavy Snow
9:36 PM 24.8 °F 9.0 °F 21.2 °F 86% 30.02 in 0.5 mi NW 25.3 mph 39.1 mph 0.01 in Fog , Snow Light Snow
9:40 PM 24.8 °F 8.4 °F 19.4 °F 80% 30.02 in 2.0 mi NW 27.6 mph 38.0 mph 0.01 in Snow Light Snow
9:44 PM 24.8 °F 9.6 °F 19.4 °F 80% 30.03 in 4.0 mi NW 23.0 mph 35.7 mph 0.01 in Snow Light Snow
9:56 PM 26.6 °F 12.7 °F 19.4 °F 74% 30.05 in 4.0 mi WNW 20.7 mph 31.1 mph N/A Snow Light Snow
10:56 PM 23.0 °F 9.6 °F 15.1 °F 72% 30.11 in 10.0 mi WNW 16.1 mph - 0.00 in   Overcast
11:16 PM 21.2 °F 4.9 °F 12.2 °F 68% 30.10 in 10.0 mi WNW 23.0 mph 31.1 mph N/A   Overcast
11:39 PM 19.4 °F 1.1 °F 8.6 °F 63% 30.13 in 9.0 mi WNW 27.6 mph 36.8 mph N/A   Scattered Clouds
11:56 PM 19.0 °F 3.2 °F 9.0 °F 65% 30.16 in 8.0 mi WNW 19.6 mph 35.7 mph N/A   Scattered Clouds